When you browse on this site, cookies collect data to enhance your experience and personalize the content and advertising you see.
Visit our Privacy Policy to learn more. By continuing to use the site, you agree to this use of cookies and data.
  • In United Kingdom
  • List of Countries
  • For 7 days
  • Water Temperature
  • Weather Map
  • Weather Widgets
  • user-avatar
    Login

    Hourly Weather Izoitki

    Today, 25 February, Tuesday

    Time Temperature Precipitation Wind Pressure Humidity
    00:00 -1°C° 0 mm 3 mps 741 mmHg 77%
    01:00 -1°C° 0 mm 3 mps 741 mmHg 79%
    02:00 -2°C° 0 mm 3 mps 741 mmHg 80%
    03:00 -2°C° 0 mm 2 mps 741 mmHg 82%
    04:00 -2°C° 0 mm 2 mps 740 mmHg 83%
    05:00 -2°C° 0 mm 2 mps 740 mmHg 85%
    06:00 -2°C° 0 mm 2 mps 740 mmHg 84%
    07:00 -2°C° 0 mm 2 mps 740 mmHg 82%
    08:00 -2°C° 0 mm 2 mps 740 mmHg 81%
    09:00 -1°C° 0 mm 2 mps 740 mmHg 74%
    10:00 0°C° 0 mm 3 mps 739 mmHg 67%
    11:00 +1°C° 0 mm 3 mps 739 mmHg 59%
    12:00 +1°C° 0 mm 4 mps 738 mmHg 59%
    13:00 +1°C° 0 mm 4 mps 738 mmHg 60%
    14:00 +3°C° 0 mm 4 mps 737 mmHg 60%
    15:00 +1°C° 0.1 mm 4 mps 736 mmHg 72%
    16:00 0°C° 0.1 mm 5 mps 736 mmHg 83%
    17:00 -1°C° 0.1 mm 5 mps 735 mmHg 95%
    18:00 -1°C° 0.4 mm 5 mps 734 mmHg 95%
    19:00 -1°C° 0.4 mm 5 mps 734 mmHg 96%
    20:00 0°C° 0.4 mm 5 mps 733 mmHg 96%
    21:00 0°C° 0.3 mm 5 mps 733 mmHg 96%
    22:00 0°C° 0.3 mm 4 mps 732 mmHg 96%
    23:00 +1°C° 0.3 mm 4 mps 731 mmHg 96%

    Tomorrow, 26 February, Wednesday

    Time Temperature Precipitation Wind Pressure Humidity
    00:00 +2°C° 0.5 mm 3 mps 731 mmHg 96%
    01:00 +2°C° 0.5 mm 3 mps 731 mmHg 96%
    02:00 +2°C° 0.5 mm 3 mps 731 mmHg 97%
    03:00 +2°C° 0.6 mm 2 mps 730 mmHg 97%
    04:00 +2°C° 0.6 mm 2 mps 730 mmHg 97%
    05:00 +1°C° 0.6 mm 2 mps 730 mmHg 97%
    06:00 +1°C° 0 mm 2 mps 730 mmHg 97%
    07:00 +1°C° 0 mm 2 mps 730 mmHg 96%
    08:00 +1°C° 0 mm 2 mps 730 mmHg 96%
    09:00 +2°C° 0 mm 2 mps 730 mmHg 92%
    10:00 +2°C° 0 mm 3 mps 731 mmHg 88%
    11:00 +3°C° 0 mm 3 mps 731 mmHg 84%
    12:00 +4°C° 0 mm 3 mps 731 mmHg 79%
    13:00 +4°C° 0 mm 3 mps 731 mmHg 73%
    14:00 +5°C° 0 mm 3 mps 730 mmHg 68%
    15:00 +5°C° 0 mm 3 mps 730 mmHg 71%
    16:00 +4°C° 0 mm 3 mps 730 mmHg 74%
    17:00 +4°C° 0 mm 2 mps 730 mmHg 77%
    18:00 +4°C° 0 mm 2 mps 730 mmHg 80%
    19:00 +2°C° 0 mm 3 mps 730 mmHg 82%
    20:00 +2°C° 0 mm 3 mps 730 mmHg 85%
    21:00 +3°C° 0.1 mm 2 mps 730 mmHg 86%
    22:00 +3°C° 0.1 mm 2 mps 730 mmHg 87%
    23:00 +3°C° 0.1 mm 2 mps 730 mmHg 89%

    Day after tomorrow, 27 February, Thursday

    Time Temperature Precipitation Wind Pressure Humidity
    00:00 +3°C° 0 mm 2 mps 730 mmHg 90%
    01:00 +3°C° 0 mm 1 mps 730 mmHg 92%
    02:00 +3°C° 0 mm 1 mps 730 mmHg 94%
    03:00 +3°C° 0 mm 1 mps 730 mmHg 94%
    04:00 +1°C° 0 mm 2 mps 730 mmHg 94%
    05:00 +1°C° 0 mm 2 mps 730 mmHg 94%
    06:00 +1°C° 0 mm 2 mps 730 mmHg 92%
    07:00 -1°C° 0 mm 2 mps 730 mmHg 90%
    08:00 -1°C° 0 mm 2 mps 730 mmHg 88%
    09:00 0°C° 0 mm 3 mps 731 mmHg 84%
    10:00 -1°C° 0 mm 4 mps 731 mmHg 80%
    11:00 0°C° 0 mm 4 mps 731 mmHg 76%
    12:00 0°C° 0 mm 4 mps 731 mmHg 73%
    13:00 0°C° 0 mm 4 mps 731 mmHg 71%
    14:00 0°C° 0 mm 5 mps 732 mmHg 69%
    15:00 0°C° 0 mm 4 mps 732 mmHg 69%
    16:00 0°C° 0 mm 4 mps 732 mmHg 69%
    17:00 0°C° 0 mm 3 mps 732 mmHg 69%
    18:00 0°C° 0 mm 3 mps 732 mmHg 73%
    19:00 -1°C° 0 mm 3 mps 732 mmHg 77%
    20:00 -2°C° 0 mm 3 mps 732 mmHg 81%
    21:00 -3°C° 0 mm 4 mps 732 mmHg 80%
    22:00 -3°C° 0 mm 4 mps 732 mmHg 79%
    23:00 -4°C° 0 mm 5 mps 731 mmHg 79%

    28 February, Friday

    Time Temperature Precipitation Wind Pressure Humidity
    00:00 -4°C° 0 mm 5 mps 731 mmHg 79%
    01:00 -4°C° 0 mm 5 mps 731 mmHg 80%
    02:00 -4°C° 0 mm 5 mps 731 mmHg 80%
    03:00 -4°C° 0.1 mm 5 mps 732 mmHg 83%
    04:00 -4°C° 0.1 mm 5 mps 732 mmHg 86%
    05:00 -4°C° 0.1 mm 5 mps 732 mmHg 88%
    06:00 -4°C° 0.1 mm 5 mps 732 mmHg 88%
    07:00 -4°C° 0.1 mm 5 mps 733 mmHg 88%
    08:00 -2°C° 0.1 mm 4 mps 733 mmHg 88%
    09:00 -2°C° 0.1 mm 5 mps 734 mmHg 83%
    10:00 -1°C° 0.1 mm 5 mps 734 mmHg 78%
    11:00 -1°C° 0.1 mm 5 mps 734 mmHg 73%
    12:00 -1°C° 0 mm 5 mps 735 mmHg 71%
    13:00 -1°C° 0 mm 5 mps 736 mmHg 69%
    14:00 -1°C° 0 mm 5 mps 736 mmHg 67%
    15:00 -1°C° 0 mm 5 mps 737 mmHg 67%
    16:00 -1°C° 0 mm 4 mps 737 mmHg 68%
    17:00 -2°C° 0 mm 4 mps 737 mmHg 68%
    18:00 -1°C° 0 mm 3 mps 738 mmHg 71%
    19:00 -2°C° 0 mm 3 mps 738 mmHg 75%
    20:00 -4°C° 0 mm 3 mps 738 mmHg 78%
    21:00 -4°C° 0 mm 3 mps 739 mmHg 80%
    22:00 -4°C° 0 mm 3 mps 739 mmHg 82%
    23:00 -3°C° 0 mm 4 mps 739 mmHg 84%

    29 February, Saturday

    Time Temperature Precipitation Wind Pressure Humidity
    00:00 -4°C° 0 mm 3 mps 740 mmHg 84%
    01:00 -4°C° 0 mm 3 mps 740 mmHg 85%
    02:00 -4°C° 0 mm 3 mps 740 mmHg 86%
    03:00 -4°C° 0 mm 3 mps 740 mmHg 86%
    04:00 -4°C° 0 mm 3 mps 740 mmHg 86%
    05:00 -4°C° 0 mm 3 mps 740 mmHg 87%
    06:00 -3°C° 0 mm 2 mps 740 mmHg 86%
    07:00 -3°C° 0 mm 2 mps 740 mmHg 85%
    08:00 -3°C° 0 mm 2 mps 740 mmHg 85%
    09:00 -2°C° 0.2 mm 2 mps 741 mmHg 85%
    10:00 -2°C° 0.2 mm 2 mps 741 mmHg 85%
    11:00 -1°C° 0.2 mm 2 mps 741 mmHg 86%
    12:00 -1°C° 0.3 mm 2 mps 741 mmHg 85%
    13:00 -1°C° 0.3 mm 3 mps 741 mmHg 85%
    14:00 -1°C° 0.3 mm 3 mps 741 mmHg 84%
    15:00 -1°C° 0.1 mm 3 mps 742 mmHg 79%
    16:00 -1°C° 0.1 mm 3 mps 742 mmHg 74%
    17:00 -2°C° 0.1 mm 2 mps 742 mmHg 69%
    18:00 -2°C° 0 mm 2 mps 743 mmHg 72%
    19:00 -3°C° 0 mm 2 mps 743 mmHg 75%
    20:00 -4°C° 0 mm 2 mps 744 mmHg 78%
    21:00 -4°C° 0 mm 2 mps 744 mmHg 80%
    22:00 -4°C° 0 mm 2 mps 744 mmHg 82%
    23:00 -4°C° 0 mm 2 mps 744 mmHg 84%

    1 March, Sunday

    Time Temperature Precipitation Wind Pressure Humidity
    00:00 -4°C° 0 mm 2 mps 745 mmHg 85%
    01:00 -4°C° 0 mm 2 mps 745 mmHg 85%
    02:00 -4°C° 0 mm 2 mps 745 mmHg 86%
    03:00 -4°C° 0 mm 2 mps 745 mmHg 85%
    04:00 -4°C° 0 mm 2 mps 745 mmHg 84%
    05:00 -4°C° 0 mm 2 mps 745 mmHg 83%
    06:00 -5°C° 0 mm 3 mps 744 mmHg 80%
    07:00 -4°C° 0 mm 3 mps 744 mmHg 77%
    08:00 -4°C° 0 mm 4 mps 744 mmHg 75%
    09:00 -4°C° 0 mm 5 mps 744 mmHg 72%
    10:00 -2°C° 0 mm 5 mps 743 mmHg 70%
    11:00 -2°C° 0 mm 6 mps 743 mmHg 68%
    12:00 -1°C° 0 mm 6 mps 743 mmHg 68%
    13:00 -1°C° 0 mm 7 mps 742 mmHg 69%
    14:00 0°C° 0 mm 7 mps 742 mmHg 69%
    15:00 -1°C° 0.1 mm 7 mps 741 mmHg 77%
    16:00 -1°C° 0.1 mm 7 mps 741 mmHg 86%
    17:00 -1°C° 0.1 mm 7 mps 740 mmHg 94%
    18:00 -1°C° 0.1 mm 6 mps 740 mmHg 94%
    19:00 -1°C° 0.1 mm 6 mps 741 mmHg 93%
    20:00 -1°C° 0.1 mm 6 mps 741 mmHg 93%
    21:00 0°C° 0.5 mm 5 mps 741 mmHg 94%
    22:00 0°C° 0.5 mm 4 mps 741 mmHg 96%
    23:00 0°C° 0.5 mm 4 mps 741 mmHg 97%
    Show more